Location: Skymont Scout Reservation
(35.4344°N, 85.8742°W)
Time: 01:59:29
(UTC-05:00)

ISS - All Passes

Search period start: 31 October 2014 00:00
Search period end: 09 November 2014 23:00
Orbit: 412 x 417 km, 51.6° (Epoch: 30 October)

Date Brightness Start Highest point End Pass type
(mag) Time Alt. Az. Time Alt. Az. Time Alt. Az.
31 Oct - 09:37:51 10° SW 09:41:07 64° SE 09:44:25 10° NE daylight
31 Oct - 11:16:01 10° WNW 11:18:06 16° NNW 11:20:11 10° N daylight
31 Oct - 16:09:21 10° NNW 16:12:03 22° NNE 16:14:45 10° E daylight
31 Oct - 17:45:44 10° WNW 17:48:47 34° SW 17:51:50 10° SSE daylight
01 Nov - 08:49:04 10° SSW 08:52:02 31° SE 08:55:01 10° ENE daylight
01 Nov - 10:26:00 10° W 10:28:44 23° NNW 10:31:29 10° NNE daylight
01 Nov - 15:20:40 10° N 15:22:40 15° NNE 15:24:41 10° ENE daylight
01 Nov - 16:56:21 10° NW 16:59:41 70° SW 17:02:59 10° SE daylight
02 Nov - 07:00:49 10° S 07:02:58 16° SE 07:05:08 10° E daylight
02 Nov - 08:36:17 10° WSW 08:39:25 39° NW 08:42:34 10° NE daylight
02 Nov - 13:32:31 10° N 13:33:11 10° NNE 13:33:51 10° NE daylight
02 Nov - 15:07:10 10° NW 15:10:28 58° NE 15:13:44 10° ESE daylight
02 Nov - 16:45:48 10° WSW 16:46:45 11° SW 16:47:41 10° SW daylight
03 Nov - 07:46:49 10° SW 07:50:07 75° NW 07:53:26 10° NE daylight
03 Nov - 09:25:59 10° NW 09:27:17 12° NNW 09:28:36 10° N daylight
03 Nov - 14:18:05 10° NNW 14:21:08 32° NE 14:24:09 10° E daylight
03 Nov - 15:55:05 10° WNW 15:57:40 21° SW 16:00:14 10° S daylight
04 Nov - 06:57:38 10° SSW 07:00:51 53° SE 07:04:06 10° ENE daylight
04 Nov - 08:35:28 10° WNW 08:37:45 17° NNW 08:40:02 10° NNE daylight
04 Nov - 13:29:08 10° NNW 13:31:41 20° NNE 13:34:13 10° E daylight
04 Nov - 15:05:19 10° WNW 15:08:29 40° SW 15:11:37 10° SSE daylight
05 Nov - 06:08:49 10° S 06:11:38 26° SE 06:14:27 10° ENE daylight
05 Nov - 07:45:23 10° W 07:48:15 26° NW 07:51:07 10° NNE daylight
05 Nov - 12:40:22 10° N 12:42:07 13° NNE 12:43:52 10° ENE daylight
05 Nov - 14:15:51 10° NW 14:19:11 85° SW 14:22:30 10° SE daylight
06 Nov - 05:20:39 10° SSE 05:22:25 14° SE 05:24:11 10° E visible
06 Nov - 06:55:35 10° WSW 06:58:46 46° NW 07:01:59 10° NE daylight
06 Nov - 13:26:32 10° NW 13:29:47 48° NE 13:33:01 10° ESE daylight
06 Nov - 15:04:29 10° W 15:06:07 13° SW 15:07:45 10° SSW daylight
07 Nov - 06:06:02 10° SW 06:09:20 89° SE 06:12:40 10° NE daylight
07 Nov - 07:44:47 10° NW 07:46:25 13° NNW 07:48:04 10° N daylight
07 Nov - 12:37:21 10° NNW 12:40:16 27° NE 12:43:10 10° E daylight
07 Nov - 14:14:05 10° WNW 14:16:52 25° SW 14:19:38 10° S daylight
08 Nov - 05:16:47 10° SSW 05:19:56 43° SE 05:23:06 10° ENE visible
08 Nov - 06:54:16 10° W 06:56:44 19° NNW 06:59:13 10° NNE daylight
08 Nov - 11:48:17 10° NNW 11:50:38 18° NNE 11:52:59 10° ENE daylight
08 Nov - 13:24:16 10° WNW 13:27:30 50° SW 13:30:43 10° SSE daylight
09 Nov - 04:27:57 10° S 04:30:34 22° SE 04:33:11 10° ENE visible
09 Nov - 06:04:07 10° W 06:07:06 30° NW 06:10:05 10° NNE daylight
09 Nov - 10:59:29 10° N 11:00:53 12° NNE 11:02:18 10° NE daylight
09 Nov - 12:34:42 10° NW 12:38:01 79° NE 12:41:20 10° SE daylight
